Weather in Bardolino

Italy     45°32′54″N   10°43′26″E
temp.,
°C
wind,
m/s
gust,
m/s
humid.,
%
clouds,
%
prec.,
mm/h
press.,
hPa
HPBL,
m
13 april, tue
tue1323:00+8n111377100 5.8 1015433
02:00+8nne897496 6.5 1016395
05:00+7nne7975100 1.1 1017429
08:00+6ne6775100 3.8 1019315
11:00+7e3370100 1.3 1021553
14:00+8s4274100 1.3 1022743
17:00+9ssw548097 0.3 1020637
20:00+7ssw4486100 0.7 1022458
14 april, wed
wed1423:00+7sse228598 0.3 1024327
02:00+7s228789 0.4 1024334
05:00+6nne556243 0.1 1024233
08:00+6nne446510 0.1 1024266
11:00+9s22588 0.0 1024938
14:00+10sse115211 0.3 10231185
17:00+11sse335219 0.3 10211385
20:00+9ese4571100 0.8 1022665
15 april, thu
thu1523:00+8ene3464100 0.1 1023375
02:00+8ne4566100 0.2 1022342
05:00+8nne3361100 0.0 1022379
08:00+7ne4464100 0.1 1023800
11:00+8n3468100 0.3 1023694
14:00+9ese446856 0.8 1022908
17:00+10se336029 0.4 10211134
20:00+9ese226513 0.4 1020551
16 april, fri
fri1623:00+8e126613 0.1 1022256
02:00+7nne22691 0.1 1021232
05:00+7ne43680 0.0 1020179
08:00+7nne32620 0.0 1020258
11:00+11se12443 0.0 10201121
14:00+12sse2341100 0.0 10191394
17:00+13se2441100 0.0 10171314
20:00+11se3560100 0.0 1017477
17 april, sat
sat1723:00+10nnw226397 0.0 1018233
02:00+10nne326075 0.0 1017150
05:00+9nne43616 0.0 1016178
08:00+10nne235787 0.0 1015255
11:00+11sw114929 0.0 1015851
14:00+12wnw1152100 0.0 1013679
17:00+12wsw1253100 0.1 1012736
20:00+11ese6665100 0.2 1013963